Location: ?????
(37.7324°N, 23.9257°E)
Time: 21:31:47
(UTC+00:00)

H-2A R/B - Pass Details

Date: 29 November 2020
Orbit: 499 x 540 km, 97.3° (Epoch: 14 January)

Event Time Altitude Azimuth Distance (km) Brightness Sun altitude
Rises 04:36:34 0° 360° (N) 2,703 6.1 -8.5°
Reaches altitude 10° 04:38:52 10° 349° (N) 1,803 5.1 -8.1°
Maximum altitude 04:42:17 30° 288° (WNW) 980 3.6 -7.5°
Drops below altitude 10° 04:45:39 10° 227° (SW) 1,775 5.2 -6.9°
Sets 04:47:54 0° 216° (SW) 2,653 6.2 -6.4°
